Regional Weather Roundup
Issued by NWS

Home | Current Version | Previous Version | Text Only | Print | Product List | Glossary On
Versions: 1 2 3 4 5 6 7 8 9 10 11 12 13 14 15 16 17 18 19 20 21 22 23 24 25 26 27 28 29 30 31 32 33 34 35 36 37 38 39 40 41 42 43 44 45 46 47 48 49 50
000
ASUS43 KLSX 260807
RWRMO

WEATHER SUMMARY FOR MISSOURI
NATIONAL WEATHER SERVICE SPRINGFIELD MO
300 AM CDT TUE JUL 26 2016

NOTE: "FAIR" INDICATES FEW OR NO CLOUDS BELOW 12,000 FEET WITH NO
       SIGNIFICANT WEATHER AND/OR OBSTRUCTIONS TO VISIBILITY.
       CURRENT SKY AND/OR WEATHER CONDITIONS ARE NOT AVAILABLE FOR
       CHILLICOTHE AND FARMINGTON.

MOZ001>031-035>038-043-044-053-054-260900-
...NORTHERN AND WESTERN MISSOURI...

CITY           SKY/WX    TMP DP  RH WIND       PRES   REMARKS
KANSAS CTY INT CLEAR     71  67  87 NE5       30.05F
KANSAS C DTWN  PTCLDY    74  67  78 NE5       30.03F
LEE`S SUMMIT   CLOUDY    74  69  85 NE3       30.05F
ST JOSEPH      CLEAR     66  64  93 N5        30.05F
CHILLICOTHE      N/A     70  67  90 CALM      30.07S
KIRKSVILLE     FOG       63  62  97 CALM      30.07S VSB 3/4

$$
MOZ066>068-077>081-088>096-101>105-260900-
...SOUTHWEST MISSOURI...

CITY           SKY/WX    TMP DP  RH WIND       PRES   REMARKS
SPRINGFIELD    CLEAR     74  71  91 E3        30.03F
JOPLIN         CLOUDY    74  73  97 CALM      30.02F
BRANSON        CLOUDY    73  73 100 CALM      30.03F

$$
MOZ032>034-039>042-045>050-055>058-069>072-260900-
...CENTRAL MISSOURI...

CITY           SKY/WX    TMP DP  RH WIND       PRES   REMARKS
COLUMBIA       CLEAR     70  69  97 NE5       30.04S
JEFFERSON CITY PTCLDY    70  69  97 CALM      30.03S
ROLLA          CLOUDY    72  70  93 CALM      30.03S
SEDALIA        CLOUDY    72  70  93 CALM      30.05F
WHITEMAN AFB   MOCLDY    73  73 100 E3        30.03F
OSAGE BEACH    CLOUDY    72  71  97 NE3       30.04S

$$
MOZ051-052-059>065-260900-
...EAST CENTRAL MISSOURI...

CITY           SKY/WX    TMP DP  RH WIND       PRES   REMARKS
ST LOUIS INTL  CLOUDY    79  73  82 NE7       30.01S
SPIRIT OF STL  CLOUDY    77  74  90 NW5       30.00S
ST CHARLES     PTCLDY    76  74  93 NE5       30.00R

$$
MOZ072>076-082>087-097>100-106>115-260900-
...SOUTH CENTRAL AND SOUTHEAST MISSOURI...

CITY           SKY/WX    TMP DP  RH WIND       PRES   REMARKS
CAPE GIRARDEAU MOCLDY    75  74  96 CALM      29.98S FOG
FARMINGTON     CLOUDY    75  70  84 CALM      30.03S
POPLAR BLUFF   PTCLDY    75  74  96 CALM      29.98S FOG
WEST PLAINS    CLOUDY    76  72  87 CALM      30.04F

$$



USA.gov is the U.S. government's official web portal to all federal, state and local government web resources and services.